EN

Hourly Weather Ostend

Today, 14 May, Friday

Time Temperature Precipitation Wind Pressure Humidity
00:00 +8°C° 0 mm 1 mps 754 mmHg 89%
01:00 +8°C° 0 mm 1 mps 754 mmHg 89%
02:00 +8°C° 0 mm 1 mps 754 mmHg 88%
03:00 +7°C° 0 mm 1 mps 754 mmHg 88%
04:00 +8°C° 0 mm 1 mps 754 mmHg 86%
05:00 +9°C° 0 mm 1 mps 754 mmHg 84%
06:00 +10°C° 0 mm 1 mps 754 mmHg 83%
07:00 +11°C° 0.1 mm 1 mps 754 mmHg 79%
08:00 +12°C° 0.1 mm 1 mps 754 mmHg 75%
09:00 +14°C° 0.1 mm 1 mps 755 mmHg 71%
10:00 +14°C° 0.4 mm 2 mps 755 mmHg 71%
11:00 +13°C° 0.4 mm 3 mps 755 mmHg 71%
12:00 +13°C° 0.4 mm 4 mps 755 mmHg 71%
13:00 +13°C° 0.3 mm 4 mps 755 mmHg 72%
14:00 +13°C° 0.3 mm 4 mps 755 mmHg 73%
15:00 +13°C° 0.3 mm 4 mps 755 mmHg 74%
16:00 +13°C° 0.1 mm 4 mps 755 mmHg 77%
17:00 +12°C° 0.1 mm 4 mps 755 mmHg 79%
18:00 +11°C° 0.1 mm 4 mps 755 mmHg 82%
19:00 +10°C° 0 mm 4 mps 755 mmHg 85%
20:00 +9°C° 0 mm 3 mps 755 mmHg 88%
21:00 +8°C° 0 mm 3 mps 755 mmHg 92%
22:00 +8°C° 0 mm 2 mps 755 mmHg 91%
23:00 +8°C° 0 mm 2 mps 754 mmHg 91%

Tomorrow, 15 May, Saturday

Time Temperature Precipitation Wind Pressure Humidity
00:00 +8°C° 0 mm 1 mps 754 mmHg 91%
01:00 +8°C° 0 mm 1 mps 754 mmHg 92%
02:00 +7°C° 0 mm 2 mps 753 mmHg 93%
03:00 +7°C° 0 mm 3 mps 753 mmHg 94%
04:00 +7°C° 0 mm 3 mps 753 mmHg 92%
05:00 +7°C° 0 mm 4 mps 752 mmHg 90%
06:00 +7°C° 0 mm 4 mps 752 mmHg 88%
07:00 +8°C° 0.1 mm 4 mps 752 mmHg 87%
08:00 +8°C° 0.1 mm 5 mps 752 mmHg 87%
09:00 +9°C° 0.1 mm 5 mps 751 mmHg 86%
10:00 +8°C° 0.2 mm 5 mps 751 mmHg 87%
11:00 +8°C° 0.2 mm 6 mps 751 mmHg 87%
12:00 +8°C° 0.2 mm 6 mps 751 mmHg 88%
13:00 +8°C° 0.1 mm 5 mps 750 mmHg 88%
14:00 +9°C° 0.1 mm 5 mps 750 mmHg 87%
15:00 +9°C° 0.1 mm 5 mps 750 mmHg 87%
16:00 +10°C° 0.2 mm 5 mps 750 mmHg 85%
17:00 +10°C° 0.2 mm 5 mps 749 mmHg 83%
18:00 +10°C° 0.2 mm 6 mps 749 mmHg 81%
19:00 +9°C° 0.1 mm 6 mps 749 mmHg 84%
20:00 +8°C° 0.1 mm 6 mps 750 mmHg 88%
21:00 +6°C° 0.1 mm 7 mps 750 mmHg 92%
22:00 +6°C° 0.1 mm 7 mps 750 mmHg 92%
23:00 +6°C° 0.1 mm 7 mps 750 mmHg 93%

Day after tomorrow, 16 May, Sunday

Time Temperature Precipitation Wind Pressure Humidity
00:00 +5°C° 0.1 mm 6 mps 750 mmHg 94%
01:00 +5°C° 0 mm 6 mps 750 mmHg 94%
02:00 +5°C° 0 mm 6 mps 749 mmHg 94%
03:00 +5°C° 0 mm 6 mps 749 mmHg 95%
04:00 +5°C° 0.1 mm 6 mps 749 mmHg 94%
05:00 +6°C° 0.1 mm 7 mps 749 mmHg 92%
06:00 +8°C° 0.1 mm 7 mps 749 mmHg 91%
07:00 +8°C° 0.6 mm 7 mps 749 mmHg 89%
08:00 +9°C° 0.6 mm 7 mps 749 mmHg 86%
09:00 +9°C° 0.6 mm 7 mps 749 mmHg 83%
10:00 +10°C° 0.9 mm 8 mps 749 mmHg 82%
11:00 +11°C° 0.9 mm 8 mps 749 mmHg 81%
12:00 +11°C° 0.9 mm 8 mps 749 mmHg 80%
13:00 +12°C° 1 mm 8 mps 749 mmHg 79%
14:00 +12°C° 1 mm 8 mps 748 mmHg 78%
15:00 +12°C° 1 mm 8 mps 748 mmHg 76%
16:00 +12°C° 0.5 mm 8 mps 748 mmHg 79%
17:00 +11°C° 0.5 mm 8 mps 747 mmHg 82%
18:00 +11°C° 0.5 mm 8 mps 747 mmHg 85%
19:00 +10°C° 0.1 mm 9 mps 747 mmHg 86%
20:00 +10°C° 0.1 mm 9 mps 747 mmHg 87%
21:00 +9°C° 0.1 mm 10 mps 747 mmHg 87%
22:00 +9°C° 0.1 mm 10 mps 747 mmHg 88%
23:00 +9°C° 0.1 mm 10 mps 747 mmHg 88%

17 May, Monday

Time Temperature Precipitation Wind Pressure Humidity
00:00 +9°C° 0.1 mm 11 mps 747 mmHg 89%
01:00 +9°C° 0.3 mm 10 mps 748 mmHg 90%
02:00 +8°C° 0.3 mm 9 mps 748 mmHg 91%
03:00 +9°C° 0.3 mm 8 mps 748 mmHg 92%
04:00 +9°C° 0.2 mm 8 mps 749 mmHg 93%
05:00 +9°C° 0.2 mm 8 mps 749 mmHg 93%
06:00 +9°C° 0.2 mm 8 mps 750 mmHg 93%
07:00 +9°C° 0.1 mm 7 mps 751 mmHg 90%
08:00 +10°C° 0.1 mm 7 mps 751 mmHg 87%
09:00 +11°C° 0.1 mm 7 mps 752 mmHg 85%
10:00 +11°C° 0.2 mm 6 mps 752 mmHg 81%
11:00 +13°C° 0.2 mm 6 mps 752 mmHg 77%
12:00 +14°C° 0.2 mm 5 mps 752 mmHg 74%
13:00 +14°C° 0.3 mm 6 mps 753 mmHg 74%
14:00 +14°C° 0.3 mm 7 mps 753 mmHg 74%
15:00 +14°C° 0.3 mm 7 mps 753 mmHg 74%
16:00 +12°C° 0.5 mm 7 mps 753 mmHg 78%
17:00 +11°C° 0.5 mm 6 mps 753 mmHg 81%
18:00 +10°C° 0.5 mm 6 mps 753 mmHg 85%
19:00 +10°C° 0.3 mm 6 mps 754 mmHg 86%
20:00 +10°C° 0.3 mm 7 mps 754 mmHg 87%
21:00 +9°C° 0.3 mm 8 mps 755 mmHg 88%
22:00 +9°C° 0.3 mm 8 mps 755 mmHg 89%
23:00 +7°C° 0.3 mm 8 mps 756 mmHg 90%

18 May, Tuesday

Time Temperature Precipitation Wind Pressure Humidity
00:00 +7°C° 0.3 mm 8 mps 756 mmHg 91%
01:00 +7°C° 0.1 mm 8 mps 757 mmHg 91%
02:00 +6°C° 0.1 mm 8 mps 757 mmHg 91%
03:00 +6°C° 0.1 mm 8 mps 758 mmHg 91%
04:00 +6°C° 0 mm 8 mps 758 mmHg 90%
05:00 +7°C° 0 mm 8 mps 758 mmHg 89%
06:00 +7°C° 0 mm 8 mps 759 mmHg 88%
07:00 +9°C° 0 mm 8 mps 759 mmHg 81%
08:00 +10°C° 0 mm 8 mps 760 mmHg 74%
09:00 +11°C° 0 mm 8 mps 760 mmHg 67%
10:00 +12°C° 0 mm 9 mps 760 mmHg 66%
11:00 +12°C° 0 mm 9 mps 760 mmHg 65%
12:00 +13°C° 0 mm 10 mps 760 mmHg 63%
13:00 +12°C° 0.5 mm 9 mps 760 mmHg 72%
14:00 +10°C° 0.5 mm 9 mps 760 mmHg 81%
15:00 +9°C° 0.5 mm 8 mps 760 mmHg 91%
16:00 +8°C° 0.4 mm 9 mps 759 mmHg 88%
17:00 +10°C° 0.4 mm 9 mps 759 mmHg 85%
18:00 +9°C° 0.4 mm 10 mps 759 mmHg 83%
19:00 +9°C° 0 mm 10 mps 759 mmHg 83%
20:00 +8°C° 0 mm 10 mps 758 mmHg 84%
21:00 +8°C° 0 mm 10 mps 758 mmHg 84%
22:00 +8°C° 0.2 mm 10 mps 758 mmHg 85%
23:00 +8°C° 0.2 mm 9 mps 758 mmHg 87%

19 May, Wednesday

Time Temperature Precipitation Wind Pressure Humidity
00:00 +9°C° 0.2 mm 8 mps 758 mmHg 88%
01:00 +9°C° 0.1 mm 8 mps 758 mmHg 87%
02:00 +9°C° 0.1 mm 7 mps 757 mmHg 87%
03:00 +9°C° 0.1 mm 7 mps 757 mmHg 87%
04:00 +9°C° 0.1 mm 7 mps 757 mmHg 85%
05:00 +9°C° 0.1 mm 7 mps 758 mmHg 84%
06:00 +9°C° 0.1 mm 6 mps 758 mmHg 83%
07:00 +10°C° 0 mm 7 mps 758 mmHg 78%
08:00 +11°C° 0 mm 7 mps 758 mmHg 72%
09:00 +12°C° 0 mm 8 mps 758 mmHg 67%
10:00 +12°C° 0 mm 8 mps 758 mmHg 64%
11:00 +12°C° 0 mm 9 mps 758 mmHg 60%
12:00 +13°C° 0 mm 9 mps 758 mmHg 57%
13:00 +12°C° 0.2 mm 9 mps 759 mmHg 63%
14:00 +11°C° 0.2 mm 9 mps 759 mmHg 70%
15:00 +11°C° 0.2 mm 9 mps 759 mmHg 77%
16:00 +11°C° 0.2 mm 9 mps 759 mmHg 78%
17:00 +11°C° 0.2 mm 9 mps 759 mmHg 80%
18:00 +11°C° 0.2 mm 8 mps 760 mmHg 81%
19:00 +10°C° 0.1 mm 8 mps 760 mmHg 83%
20:00 +10°C° 0.1 mm 8 mps 760 mmHg 85%
21:00 +9°C° 0.1 mm 8 mps 761 mmHg 87%
22:00 +9°C° 0.1 mm 8 mps 761 mmHg 89%
23:00 +9°C° 0.1 mm 8 mps 761 mmHg 91%
Show more

We Need Your Consent

Meteoprog and our Service Providers may store and access personal data such as cookies, device identifiers or other similar technologies on your device and process such data to personalise content and ads, as well as provide social media features and to analyse the traffic.

  • Store and/or access information on your device

    Cookies, device identifiers or other information can be stored or accessed on your device for the purposes indicated above.

  • Personalised ads and content, ad and content measurement, audience insights, and products development

    Ads and content can be personalised based on a profile. More data can be added to better personalise ads and content. Ad and content performance can be measured. Insights about the audience who saw the ads and content can be derived. Such data can be used to develop or improve user’s experience, systems and software.

By clicking ‘I Agree’ you will allow the use of indicated cookies, device identifiers, web beacons or other similar technologies. Your settings can be changed in the browser on your device.

For certain purposes, legitimate interests may be relied on, rather than consent. You can read more about this in our Privacy and Cookie Policy.